Content
SEND FEEDBACK

Daily
Averages
Monthly
Summary
United States of America

STATEN ISLAND, NEW YORK


Home > North America > United States > New York
Elevation: 152 feet     Latitude: 40 35N     Longitude: 074 09W

WEATHER
 
SELECT A DAY
Number of Records: 189,550;   Date Range: 1/1/95 - 7/23/14
 
SHARE

PRINT THIS DATA

[ ← Previous Day ]
WEATHER ALMANAC - MARCH 25, 2013
[ Next Day → ]
[ °C ]   °F
Weather ElementAverageHighLow
Temperature38.1 °F39.9 °F (2:51 am)35.1 °F (11:51 am)
Dewpoint30.9 °F35.6 °F (8:13 pm)24.8 °F (4:51 am)
Humidity76.1 %93 % (8:13 pm)56 % (4:51 am)
Barometer29.57 in29.70 in (1:51 am)29.48 in (3:42 pm)
Wind Speed10.9 mph20.7 mph (1:51 pm)
Wind Gust34.5 mph (10:44 am)
Weather ElementAverage
Visibility6.3 mi
Wind DirectionSE (130 °)

Weather ElementTotal
Precipitation0.15 in
Heating Degree Days27.5 (Base 65)
Averaged from 29 records on March 25, 2013
WEATHER CONDITIONS BREAKOUT
WIND DIRECTION BREAKOUT
WEATHER BY HOUR - MARCH 25, 2013
[ °C ]   °F
Local TimeTemperatureDewpointHumidityBarometerVisibilityWind DirectionWind SpeedGust SpeedPrecipitationEventsConditions
1:51 AM39.0 °F27.0 °F62 %29.70 in10.0 miESE (110°)3.5 mphOvercast
2:51 AM39.9 °F26.1 °F58 %29.67 in10.0 miENE (70°)4.6 mphOvercast
3:51 AM39.9 °F27.0 °F60 %29.64 in10.0 miENE (70°)6.9 mphOvercast
4:51 AM39.2 °F24.8 °F56 %29.62 in10.0 miENE (70°)5.8 mphOvercast
5:51 AM39.9 °F26.1 °F58 %29.62 in10.0 miENE (60°)10.4 mphOvercast
6:51 AM39.0 °F28.0 °F65 %29.60 in10.0 miNE (40°)12.7 mphOvercast
7:51 AM39.2 °F28.4 °F65 %29.60 in10.0 miNE (40°)12.7 mphOvercast
9:51 AM39.0 °F25.0 °F57 %29.60 in10.0 miENE (60°)18.4 mph26.5 mphOvercast
10:44 AM37.4 °F26.6 °F65 %29.59 in3.0 miNE (50°)18.4 mph34.5 mph0.00 inSnowLight Snow
10:51 AM37.9 °F28.0 °F68 %29.59 in3.0 miNE (50°)19.6 mph28.8 mph0.00 inSnowLight Snow
11:12 AM35.6 °F30.2 °F81 %29.59 in1.5 miENE (70°)11.5 mph28.8 mph0.00 inSnowLight Snow
11:51 AM35.1 °F32.0 °F89 %29.57 in1.5 miNE (50°)9.2 mph24.2 mph0.01 inSnowLight Snow
12:19 PM37.4 °F32.0 °F81 %29.55 in2.5 miNE (50°)12.7 mph0.01 inSnowLight Snow
12:51 PM37.9 °F32.0 °F79 %29.54 in2.5 miNE (40°)13.8 mph20.7 mph0.01 inRainLight Rain
1:06 PM39.2 °F30.2 °F70 %29.52 in3.0 miNE (40°)15.0 mph24.2 mph0.00 inRainLight Rain
1:51 PM39.0 °F30.9 °F73 %29.51 in3.0 miNE (50°)20.7 mph29.9 mph0.00 inRainLight Rain
2:51 PM37.0 °F33.1 °F86 %29.49 in3.0 miNE (50°)11.5 mph20.7 mph0.01 inRain-SnowLight Rain
3:42 PM37.4 °F33.8 °F87 %29.48 in3.0 miNE (50°)4.6 mph0.02 inRainLight Rain
3:51 PM37.9 °F35.1 °F89 %29.48 in3.0 miNE (40°)8.1 mph0.02 inRainLight Rain
4:51 PM37.9 °F35.1 °F89 %29.48 in3.0 miNorth (10°)9.2 mph0.02 inRainLight Rain
5:51 PM37.9 °F35.1 °F89 %29.49 in5.0 miNorth (350°)10.4 mph0.02 inRainLight Rain
6:51 PM37.9 °F35.1 °F89 %29.51 in5.0 miNW (320°)6.9 mph0.01 inRainLight Rain
7:51 PM37.9 °F35.1 °F89 %29.53 in6.0 miNW (320°)9.2 mph0.02 inRainLight Rain
8:13 PM37.4 °F35.6 °F93 %29.54 in6.0 miNNW (340°)10.4 mph0.00 inRainLight Rain
8:51 PM37.9 °F34.0 °F86 %29.56 in8.0 miNorth (10°)13.8 mph0.00 inRainLight Rain
9:51 PM37.9 °F33.1 °F83 %29.58 in10.0 miNorth (360°)10.4 mph0.00 inOvercast
10:05 PM37.4 °F33.8 °F87 %29.58 in10.0 miNNW (340°)9.2 mphMostly Cloudy
10:51 PM39.0 °F32.0 °F76 %29.58 in10.0 miNNW (330°)3.5 mphMostly Cloudy
11:51 PM37.9 °F30.9 °F76 %29.59 in10.0 miNNW (330°)12.7 mphOvercast
Hourly data recorded from KEWR, located miles away from Staten Island, New York







STORIES FROM OUR PARTNERS